Вернуться в каталог

STARLINK-35760

АктивенСвязьVLEO
NORAD 66274·PAYLOAD·🇺🇸 United States

Запущен Oct 31, 2025 с Vandenberg Space Force Base

Loading…

Ближайшие Пролёты (ближайшие 24 часа)

TLE

СвежийSource: CelesTrak SupGP

Эпоха: Sep 14, 2026, 15:24 UTC

1 66274C 25247K   26257.64215278 -.00094684  00000+0 -27984-2 0  2573
2 66274  53.1606  30.7706 0001231  82.6964 346.1533 15.34427961    11

Отслеживайте STARLINK-35760 в реальном времени с AllMySat

Download on the App Store